Satellite-Ground Cal/Val Region Overpasses Predictions

Prediction of Satellite NPP Overpassing Cal/Val Region: PacNW

Region Location: (Latitude: 10.00, Longitude: 139.50) to (Latitude: 22.70, Longitude: 165.60).

Table of predicted overpasses for the next 14.0 days since TLE Epoch: 7/5/2019
Interval Starting Time Starting Location Ending Time Ending Location
1 07/06/2019 02:45:54 ( 10.03, 158.24) 07/06/2019 02:49:29 ( 22.65, 155.24)
2 07/06/2019 15:17:47 ( 22.69, 155.49) 07/06/2019 15:21:23 ( 10.01, 152.47)
3 07/07/2019 02:26:53 ( 10.04, 163.00) 07/07/2019 02:30:28 ( 22.66, 159.99)
4 07/07/2019 14:58:45 ( 22.69, 160.24) 07/07/2019 15:02:21 ( 10.01, 157.22)
5 07/08/2019 02:10:28 ( 19.27, 165.59) 07/08/2019 02:11:26 ( 22.67, 164.75)
6 07/08/2019 03:49:21 ( 10.05, 142.38) 07/08/2019 03:52:47 ( 22.14, 139.50)
7 07/08/2019 14:39:44 ( 22.68, 165.00) 07/08/2019 14:43:19 ( 10.06, 161.99)
8 07/08/2019 16:21:14 ( 22.67, 139.62) 07/08/2019 16:21:22 ( 22.21, 139.50)
9 07/09/2019 03:30:20 ( 10.06, 147.13) 07/09/2019 03:33:55 ( 22.68, 144.13)
10 07/09/2019 16:02:12 ( 22.67, 144.38) 07/09/2019 16:05:47 ( 10.05, 141.37)
11 07/10/2019 03:11:17 ( 10.01, 151.90) 07/10/2019 03:14:53 ( 22.69, 148.88)
12 07/10/2019 15:43:11 ( 22.66, 149.13) 07/10/2019 15:46:46 ( 10.04, 146.13)
13 07/11/2019 02:52:16 ( 10.01, 156.66) 07/11/2019 02:55:52 ( 22.69, 153.64)
14 07/11/2019 15:24:09 ( 22.65, 153.89) 07/11/2019 15:27:44 ( 10.03, 150.88)
15 07/12/2019 02:33:14 ( 10.02, 161.41) 07/12/2019 02:36:49 ( 22.64, 158.41)
16 07/12/2019 15:05:08 ( 22.64, 158.64) 07/12/2019 15:08:43 ( 10.02, 155.64)
17 07/13/2019 02:14:56 ( 12.56, 165.59) 07/13/2019 02:17:48 ( 22.65, 163.16)
18 07/13/2019 03:55:43 ( 10.03, 140.79) 07/13/2019 03:57:17 ( 15.56, 139.51)
19 07/13/2019 14:46:06 ( 22.69, 163.41) 07/13/2019 14:49:42 ( 10.01, 160.39)
20 07/14/2019 03:36:41 ( 10.04, 145.55) 07/14/2019 03:40:16 ( 22.66, 142.54)
21 07/14/2019 14:30:07 ( 11.94, 165.60) 07/14/2019 14:30:40 ( 10.01, 165.15)
22 07/14/2019 16:08:34 ( 22.68, 142.79) 07/14/2019 16:12:10 ( 10.00, 139.77)
23 07/15/2019 03:17:40 ( 10.05, 150.30) 07/15/2019 03:21:15 ( 22.67, 147.30)
24 07/15/2019 15:49:33 ( 22.67, 147.55) 07/15/2019 15:53:08 ( 10.05, 144.54)
25 07/16/2019 02:58:37 ( 10.00, 155.07) 07/16/2019 03:02:13 ( 22.68, 152.05)
26 07/16/2019 15:30:31 ( 22.66, 152.30) 07/16/2019 15:34:06 ( 10.04, 149.30)
27 07/17/2019 02:39:36 ( 10.01, 159.83) 07/17/2019 02:43:12 ( 22.69, 156.81)
28 07/17/2019 15:11:30 ( 22.65, 157.06) 07/17/2019 15:15:05 ( 10.03, 154.05)
29 07/18/2019 02:20:34 ( 10.02, 164.58) 07/18/2019 02:24:09 ( 22.64, 161.58)
30 07/18/2019 14:52:28 ( 22.64, 161.81) 07/18/2019 14:56:03 ( 10.02, 158.81)
31 07/19/2019 03:43:03 ( 10.04, 143.96) 07/19/2019 03:46:38 ( 22.66, 140.96)
32 07/19/2019 14:34:35 ( 18.65, 165.59) 07/19/2019 14:37:02 ( 10.01, 163.56)


NCC Satellite Cal/Val Overpasses Prediction Service
